Location: Britannia Beach
(45.3521°N, 62.9901°W)
Time: 11:58:19
(UTC+00:00)

X-37B - Pass Details

Date: 06 August 2021
Orbit: 381 x 393 km, 45.0° (Epoch: 29 August)

Event Time Altitude Azimuth Distance (km) Brightness Sun altitude
Exits shadow 06:33:41 28° 108° (ESE) 753 2.1 -20.8°
Drops below altitude 10° 06:35:30 10° 87° (E) 1,397 3.9 -20.6°
Sets 06:37:37 0° 81° (E) 2,252 5.1 -20.4°
